Location: Autrey
(47.4854°N, 5.4910°E)
Time: 11:29:48
(UTC+00:00)

Daily predictions for brighter satellites

Satellite Brightness Start Highest point End
(mag) Time Altitude Azimuth Time Altitude Azimuth Time Altitude Azimuth
Cosmos 1842 Rocket 3.7 16:19:08 10° SSW 16:23:28 77° W 16:27:49 10° N
Landsat 5 3.9 16:21:31 10° NNE 16:25:50 52° E 16:30:14 10° S
CZ-4C R/B 3.3 16:22:19 10° NNE 16:25:53 52° E 16:29:25 10° S
ISS -3.7 16:22:38 10° WSW 16:26:00 88° NNW 16:29:23 10° ENE
USA 215 4.5 16:23:09 10° ENE 16:28:24 25° SE 16:33:37 10° S
Cosmos 1805 Rocket 3.8 16:24:10 10° N 16:28:32 50° ENE 16:32:51 10° SSE
ERS-2 4.0 16:27:21 10° ENE 16:29:12 13° E 16:31:03 10° ESE
CZ-4B DEB 4.2 16:23:50 10° SSE 16:29:20 84° ENE 16:34:50 10° NNW
PAYLOAD B 4.2 16:25:50 10° SSE 16:31:24 74° ENE 16:36:59 10° NNW
Okean-O 4.5 16:30:02 10° ENE 16:31:31 12° NE 16:32:59 10° NE
Radarsat Rocket 4.1 16:25:55 10° SSE 16:31:56 73° ENE 16:38:42 10° NNW
Cosmos 2333 Rocket 3.3 16:26:53 10° SW 16:32:17 43° NW 16:37:42 10° NNE
Meteor 2-2 Rocket 4.5 16:29:01 10° SSW 16:34:59 83° WNW 16:40:52 10° N
BREEZE-M R/B 3.6 16:28:08 10° WNW 16:35:01 71° SSW 16:37:24 10° ESE
Cosmos 1666 Rocket 4.4 16:31:15 10° N 16:35:08 30° ENE 16:39:02 10° SE
Okean O Rocket 1.8 16:32:36 10° SE 16:36:46 46° ENE 16:40:58 10° N
Cosmos 2278 Rocket 2.8 16:31:13 10° NNW 16:36:51 65° WSW 16:42:27 10° SSE
NOSS 0 Rocket 4.0 16:30:39 10° SSW 16:36:53 90° SE 16:43:11 10° NNE
PSLV R/B 4.2 16:33:34 10° S 16:37:41 76° WSW 16:41:47 10° NNW
COSMOS 2428 3.6 16:32:56 10° SW 16:38:29 49° NW 16:44:04 10° NNE
Cosmos 405 4.3 16:36:55 10° SW 16:40:14 40° WNW 16:43:33 10° N
Cosmos 482 Debris 3.6 16:38:44 10° NW 16:40:20 26° NNE 16:41:26 15° ENE
Nadezhda 1 Rocket 4.1 16:34:40 10° S 16:41:00 81° E 16:47:26 10° N
Cosmos 389 Rocket 2.9 16:39:36 10° SSE 16:42:47 37° E 16:45:59 10° NNE
Cosmos 1933 4.4 16:40:04 10° SE 16:43:24 25° E 16:46:46 10° NNE
CZ-4B R/B 2.7 16:41:51 11° NE 16:43:54 18° E 16:46:10 10° SE
Cosmos 2360 Rocket 4.3 16:41:27 10° W 16:45:25 19° NW 16:49:24 10° N
AQUARIUS 4.2 16:41:20 10° SSE 16:45:44 56° ENE 16:50:09 10° N
BREEZE-M DEB (TANK) 1.5 16:45:18 10° WSW 16:47:32 81° SSE 16:49:13 15° ENE
Cosmos 2219 Rocket 3.6 16:45:56 10° WSW 16:51:05 35° NW 16:56:16 10° NNE
Cosmos 1782 4.4 16:49:16 10° ESE 16:51:35 15° E 16:52:30 14° ENE
BREEZE-M DEB (TANK) 4.4 16:48:46 10° W 16:52:58 82° N 17:06:06 13° ENE
H-2A R/B 1.9 16:49:08 10° NNE 16:53:19 75° ESE 16:57:34 10° S
YAOGAN 6 3.0 16:52:15 10° S 16:55:52 69° WSW 16:59:29 10° NNW
Cosmos 1356 3.3 16:52:38 10° N 16:56:03 63° ENE 16:59:26 10° SSE
Cosmos 962 Rocket 4.5 16:51:35 10° N 16:57:54 73° E 17:04:06 10° SSE
Cosmos 44 3.5 16:55:13 10° NNW 17:00:26 59° NE 17:05:47 10° SE
Cosmos 2154 Rocket 4.4 16:54:20 10° NNW 17:00:38 69° W 17:06:56 10° S
Cosmos 1867 3.7 16:56:34 10° SSW 17:01:54 62° ESE 17:06:42 13° NE
USA 267 3.6 16:56:37 11° E 17:02:41 50° NNE 17:08:56 10° NW
Cosmos 1633 Rocket 3.3 16:58:58 10° N 17:03:12 45° ENE 17:07:22 10° SSE
CZ-4B R/B 3.2 16:58:04 10° SSE 17:03:25 86° WSW 17:08:45 10° NNW
CZ-2D R/B 4.3 17:00:55 10° ESE 17:04:01 24° ENE 17:07:08 10° NNE
Cosmos 1125 Rocket 4.3 16:59:40 10° NNW 17:04:44 54° WSW 17:09:48 10° S
Cosmos 2237 Rocket 2.4 16:59:18 10° SW 17:04:55 71° WNW 17:10:34 10° NNE
CORIOLIS 4.1 17:00:40 10° SSE 17:06:04 84° ENE 17:11:33 10° NNW
Cosmos 2221 4.4 17:02:15 10° SW 17:06:07 31° WNW 17:09:59 10° N
NOAA 11 4.1 17:01:26 10° SSE 17:06:48 66° ENE 17:12:12 10° N
Feng Yun 1-1 Rocket 4.4 17:02:34 10° SE 17:08:09 52° ENE 17:13:35 10° N
Meteor 1-25 Rocket 4.2 17:04:55 10° N 17:10:28 58° ENE 17:16:03 10° SSE
Lacrosse 5 rocket 1.7 17:07:12 10° SSW 17:10:36 38° SE 17:12:17 23° E
Meteor 2-12 Rocket 4.5 17:06:10 10° N 17:12:22 88° W 17:18:30 10° S
Cosmos 2341 Rocket 4.0 17:07:55 10° N 17:14:14 84° E 17:20:35 10° S
H-2A R/B 4.0 17:11:29 10° S 17:15:31 39° W 17:19:28 10° NNW
Cosmos 2369 Rocket 2.8 17:10:54 10° NNW 17:16:03 33° NE 17:20:02 15° ESE
USA 281 3.5 17:12:00 10° ESE 17:18:07 43° NE 17:24:16 10° NNW
Helios 1A Rocket 3.8 17:18:57 23° E 17:19:59 26° ENE 17:23:22 10° N
CZ-2C R/B 3.6 17:16:53 10° SE 17:21:20 32° ENE 17:25:38 10° N
Cosmos 864 Rocket 4.5 17:19:44 10° N 17:26:02 64° ENE 17:32:14 10° SSE
BREEZE-M DEB (TANK) 1.8 17:23:49 10° SW 17:26:09 49° SSE 17:26:19 47° SE
Cosmos 2285 Rocket 3.9 17:20:52 10° NNW 17:27:19 77° ENE 17:33:40 10° SSE
SL-8 Rocket 3.9 17:21:09 10° N 17:27:25 82° E 17:33:42 10° S
FengYun 1-2 T 4.3 17:23:05 10° SSE 17:28:39 80° WSW 17:34:11 10° NNW
Cosmos 1943 Rocket 2.1 17:27:41 10° NNW 17:33:13 63° ENE 17:38:44 10° SE
Cosmos 1959 Rocket 4.4 17:28:36 10° N 17:35:00 77° E 17:41:21 10° SSE
SAR-Lupe-4 3.8 17:35:12 41° ENE 17:35:46 45° E 17:39:13 10° S
CREW DRAGON DEMO-1 DEB 4.3 17:33:41 10° WNW 17:36:26 34° SW 17:38:11 18° SSE
YAOGAN 1 3.1 17:36:42 34° E 17:37:07 35° ENE 17:41:04 10° N
CZ-4 R/B 1.7 17:39:48 40° ENE 17:39:53 40° ENE 17:43:41 10° N
ARGOS 4.1 17:42:11 27° NE 17:42:11 27° NE 17:45:53 10° N
Cosmos 1470 Rocket 3.4 17:37:21 10° N 17:41:41 64° E 17:45:57 10° SSE
Cosmos 1821 Rocket 4.3 17:36:03 10° N 17:41:52 40° ENE 17:47:44 10° SE
Cosmos 2181 Rocket 4.0 17:36:31 10° S 17:42:58 89° E 17:49:22 10° N
Cosmos 773 Rocket 3.9 17:37:54 10° S 17:43:06 67° ESE 17:46:28 22° NNE
Cosmos 1939 Rocket 2.7 17:42:08 10° SSE 17:45:59 84° WSW 17:49:56 10° NNW
Cosmos 2297 4.1 17:41:59 10° NNW 17:47:38 65° WSW 17:53:15 10° SSE
IRS-1C Rocket 4.0 17:43:10 10° SSE 17:48:27 83° ENE 17:53:46 10° NNW
COSMO-SKYMED 1 2.4 17:47:07 21° NNE 17:50:00 75° ESE 17:54:21 10° S
Cosmos 1515 Rocket 3.6 17:45:52 10° S 17:50:07 54° E 17:51:09 43° NE
Meteor 1-4 Rocket 2.4 17:46:56 10° S 17:50:31 66° E 17:50:34 65° E
SAR-Lupe-1 3.9 17:52:40 68° ENE 17:52:52 70° ESE 17:56:26 10° S
USA 81 4.3 17:48:35 10° N 17:53:50 69° W 17:59:04 10° S
SL-16 R/B 2.3 17:49:21 10° SSW 17:55:00 77° WNW 17:59:03 20° NNE
Cosmos 1151 Rocket 3.4 17:55:17 10° SSW 17:59:31 62° WNW 18:03:28 12° N
SL-24 DEB 4.1 17:55:26 10° N 18:00:13 77° E 18:04:55 10° S
H-2A R/B 2.2 17:59:31 40° ESE 18:00:50 49° ENE 18:05:49 10° N
ERS-2 2.9 18:00:55 22° N 18:03:03 50° WNW 18:06:35 10° SSW
ISS -2.7 17:59:51 10° WNW 18:02:36 37° NNW 18:02:36 37° NNW
SL-08 R/B 4.3 17:59:06 10° N 18:05:18 80° E 18:11:24 10° SSE
BREEZE-M DEB (TANK) 4.4 18:04:56 10° SSW 18:06:01 14° S 18:06:01 14° S
Okean-O 2.5 18:02:49 10° SSE 18:07:15 82° ENE 18:11:43 10° NNW
Meteor 2-6 Rocket 4.3 18:04:10 10° SSE 18:09:21 50° ESE 18:09:21 50° ESE
X-37B 3.0 18:07:18 10° SSW 18:08:23 16° SSW 18:08:23 16° SSW
Cosmos 2263 4.1 18:05:44 10° NNW 18:11:17 58° ENE 18:11:55 55° E
USA 215 3.2 18:09:24 39° ENE 18:12:03 80° SE 18:18:37 10° SW
Cosmos 1933 Rocket 3.5 18:07:37 10° N 18:12:07 90° W 18:16:35 10° S
TIMED 4.4 18:08:33 10° SSW 18:12:55 88° ESE 18:13:09 80° NNE
Okean O Rocket 4.3 18:10:09 10° SW 18:13:21 20° W 18:16:36 10° NW
Cosmos 1328 Rocket 4.4 18:10:49 10° SSW 18:14:59 49° WNW 18:18:28 15° N
CZ-4B R/B 3.5 18:15:00 19° NW 18:16:09 24° WNW 18:18:43 10° SW
Meteor 1-14 Rocket 4.4 18:12:14 10° NNW 18:18:11 77° W 18:24:09 10° S
Cosmos 44 Rocket 4.3 18:13:38 10° NNW 18:17:19 34° NNE 18:17:19 34° NNE
Cosmos 1782 3.7 18:23:40 10° SSW 18:27:29 47° WNW 18:28:10 42° NW
CSL-04 Debris 4.0 18:30:38 61° SSE 18:31:39 82° ENE 18:37:10 10° NNW
Cosmos 1656 Rocket 3.9 18:29:57 10° NNW 18:34:39 57° N 18:34:39 57° N
Cosmos 1538 Rocket 4.2 18:35:38 10° SSW 18:40:59 70° WNW 18:41:40 62° NNW
USA 267 3.2 18:44:00 56° SSE 18:45:30 77° SW 18:52:05 10° NW
Meteor 1-5 Rocket 4.4 18:41:20 10° NNW 18:47:17 74° W 18:50:43 26° S
NOSS 3-3 (A) 4.4 18:42:03 10° NW 18:49:26 70° NE 18:50:00 67° ENE
NOSS 3-3 (C) 4.4 18:42:09 10° NW 18:49:32 69° NE 18:50:04 67° ENE
Lacrosse 5 rocket 3.4 18:46:19 10° W 18:47:55 22° W 18:47:55 22° W
Cosmos 1603 4.1 18:44:23 10° SSW 18:48:33 51° SSW 18:48:33 51° SSW
Cosmos 2239 Rocket 4.4 18:44:48 10° N 18:50:58 81° W 18:53:42 36° S
CSL-04 Rocket 3.9 18:52:18 63° NW 18:52:18 63° NW 18:56:55 10° NNW
MOS 1 Rocket 4.0 18:53:09 52° NNW 18:54:10 62° WNW 18:59:30 10° SSW
Cosmos 1943 4.1 18:52:05 10° SSW 18:55:34 40° SSW 18:55:34 40° SSW
Cosmos 2369 Rocket 3.0 18:54:49 10° NW 19:00:16 48° WSW 19:01:56 37° SSW
CZ-2C R/B 4.4 18:56:33 10° SSW 19:01:11 35° W 19:05:39 10° NNW
USA 281 4.1 18:56:21 10° S 19:02:34 45° WSW 19:08:52 10° NW
CZ-4 R/B 4.0 19:15:50 18° WNW 19:15:50 18° WNW 19:18:00 10° NW
Cosmos 1943 Rocket 4.4 19:12:18 10° NW 19:16:28 22° WSW 19:20:40 10° SSW
SL-16 R/B 4.4 19:36:19 10° W 19:40:07 18° NW 19:40:57 17° NNW
H-2A R/B 4.0 19:40:09 25° W 19:40:28 25° W 19:44:46 10° NW
USA 215 4.4 19:56:45 39° WNW 19:56:45 39° WNW 20:01:05 10° W
